Location: Skalnate Pleso
(49.1889°N, 20.2450°E)
Time: 04:01:38
(UTC+02:00)

Cosmos 1269 Rocket - Pass Details

Date: 27 February 2020
Orbit: 772 x 780 km, 74.1° (Epoch: 06 April)

Event Time Altitude Azimuth Distance (km) Brightness Sun altitude
Exits shadow 03:08:33 15° 349° (N) 2,031 6.3 -32.4°
Drops below altitude 10° 03:09:47 10° 0° (N) 2,333 6.8 -32.2°
Sets 03:12:48 0° 17° (NNE) 3,266 7.8 -31.8°
